[[{"header":{"parameterUnit":"m.s-1","parameterCategory":1,"la1":30.2991,"la2":30.254,"lo1":-89.0895,"lo2":-89.0444,"dy":0.0017,"dx":0.0017,"nx":28,"ny":28,"refTime":"2025-03-08T09:00:00:Z","depth":0,"parameterNumber":2,"parameterNumberName":"U-component_of_WINDS"},"data":[0,0,0,0,0,0,0,0,0,0,0,0,0,0,0,0,0,0,0,0,0,0,0,0,0,0,0,0,0,0,0,0,0,0,0,0,0,0,0,0,0,0,0,0,0,0,0,0,0,0,0,0,0,0,0,0,0,0,6.6517,6.6516,0,6.6461,6.646,6.6459,6.6274,6.627,6.6266,6.6262,6.6208,6.621,6.6213,0,0,0,0,0,0,0,0,0,0,0,0,0,6.647,6.6472,6.6517,6.6516,6.6516,6.6461,6.646,6.6459,6.6275,6.627,6.6265,6.626,6.6207,6.621,6.6213,0,0,0,0,0,0,0,0,0,0,0,0,0,6.646,6.6473,6.6517,6.6417,6.6407,6.6461,6.646,6.6459,6.6276,6.6269,6.6263,6.6257,6.6206,6.621,6.6213,6.6361,0,0,6.6225,6.6226,0,0,0,0,0,0,0,0,6.6461,6.6462,6.6432,6.6424,6.6413,6.6368,6.6423,6.6426,6.6277,6.6326,6.6262,6.6254,6.6267,6.6265,6.6268,6.6358,6.6356,6.6225,6.6227,6.6229,6.623,0,0,0,0,0,0,0,6.6462,6.6463,6.6495,6.6432,6.6421,6.6376,6.6368,6.6423,6.6332,6.6321,6.6308,6.6303,6.626,6.6265,6.6265,6.6355,6.6225,6.6228,6.623,6.6232,6.6566,6.6572,0,0,0,0,0,0,6.6476,6.6465,6.6497,6.6493,6.6422,6.6382,6.6373,6.6389,6.6331,6.6316,6.6309,6.6295,6.6262,6.6261,6.6263,6.6433,6.6229,6.6232,6.6234,6.6559,6.6567,6.6575,0,0,0,0,0,0,6.6476,6.6481,6.6499,6.6475,6.6474,6.639,6.6409,6.6391,6.6395,6.6321,6.6304,6.633,6.6257,6.6258,6.6338,6.6428,6.6234,6.6237,6.6551,6.6562,6.6571,6.6774,0,0,0,0,0,0,6.6475,6.6482,6.6535,6.6478,6.6476,6.6574,6.6414,6.6394,6.6402,6.6383,6.6337,6.6323,6.6252,6.6334,6.6342,6.643,6.624,6.6543,6.6556,6.6568,6.6759,6.6789,6.6816,0,0,0,0,0,6.6474,6.6595,6.6539,6.6544,6.6541,6.658,6.6579,6.6493,6.641,6.6464,6.6417,6.6325,6.6417,6.6343,6.6351,6.6442,6.6537,6.6552,6.6567,6.6746,6.6783,6.6815,0,0,0,0,0,0,6.6666,6.6586,6.6523,6.6628,6.6612,6.6548,6.6614,6.6535,6.6543,6.6526,6.6421,6.6412,6.6508,6.6482,6.6401,6.6582,6.6462,6.6479,6.6595,6.663,6.6659,6.6663,6.6243,0,0,0,0,0,6.672,6.6757,6.6685,6.6785,6.678,6.6699,6.6712,6.6648,6.6628,6.662,6.6578,6.6564,6.6589,6.6608,6.6627,6.6754,6.6743,6.682,6.6849,6.6873,6.6889,6.6957,6.6991,6.6624,6.6624,6.6623,0,0,6.6833,6.6794,6.6823,6.6823,6.6802,6.6844,6.6694,6.6744,6.6775,6.6628,6.6701,6.6671,6.6647,6.6752,6.6796,6.6734,6.6988,6.6892,6.6912,6.6915,6.6976,6.7011,6.7042,6.6634,6.6632,6.6631,0,0,6.7061,6.7034,6.7115,6.7098,6.707,6.7015,6.7036,6.6984,6.6958,6.703,6.6921,6.6957,6.7003,6.6991,6.6991,6.7218,6.7134,6.7227,6.7377,6.7444,6.7473,6.7498,6.758,6.7611,6.7243,6.7244,6.7244,0,6.7205,6.7262,6.7167,6.7225,6.7229,6.7097,6.718,6.7169,6.715,6.7156,6.7086,6.7143,6.7117,6.7219,6.7274,6.7278,6.73,6.7232,6.7476,6.75,6.7522,6.76,6.7631,6.7256,6.7254,6.7253,6.7252,0,6.7442,6.7483,6.7553,6.7537,6.7548,6.7619,6.7537,6.756,6.7496,6.745,6.7526,6.7492,6.7503,6.7522,6.746,6.7616,6.7578,6.7494,6.7371,6.7571,6.7642,6.767,6.7272,6.7268,6.7265,6.7262,0,0,6.7787,6.7719,6.7746,6.7738,6.7698,6.7729,6.7795,6.7805,6.7828,6.782,6.7874,6.7917,6.7839,6.784,6.7775,6.7834,6.8018,6.7742,6.774,6.7796,6.819,6.8255,6.829,6.7962,6.7967,6.7972,6.8193,0,6.8004,6.811,6.8028,6.815,6.8189,6.8066,6.8123,6.8107,6.8066,6.8094,6.8049,6.8082,6.7976,6.7976,6.8029,6.7985,6.8096,6.7967,6.8013,6.8016,6.8023,6.8327,6.8395,6.8605,6.822,6.8224,6.8228,0,6.827,6.8274,6.84,6.8354,6.8367,6.842,6.8424,6.8452,6.8431,6.8397,6.84,6.832,6.8383,6.8263,6.835,6.8264,6.8278,6.826,6.8266,6.8268,6.8134,6.8338,6.867,6.8702,6.827,6.8267,6.8264,0,6.8512,6.8548,6.8628,6.8625,6.8573,6.8613,6.8594,6.8567,6.8579,6.8583,6.8591,6.8603,6.861,6.8622,6.8549,6.8468,6.8647,6.8519,6.8622,6.8625,6.8666,6.8664,6.9006,6.8674,6.8674,6.8673,6.8672,0,6.8762,6.8845,6.8736,6.8786,6.8875,6.8781,6.8873,6.8841,6.8819,6.8861,6.8756,6.8799,6.8699,6.8733,6.8676,6.8758,6.8762,6.8738,6.8722,6.8748,6.8751,6.8756,6.874,6.8681,6.8679,6.8678,6.8676,0,6.9047,6.8977,6.9057,6.9002,6.899,6.9059,6.9012,6.9057,6.901,6.9066,6.9073,6.9,6.9034,6.8962,6.8986,6.8948,6.9065,6.9026,6.9072,6.9061,6.9168,6.916,6.9525,6.9569,6.921,6.9213,6.9216,0,6.9212,6.9273,6.9224,6.9245,6.9231,6.9266,6.9278,6.9189,6.9206,6.9189,6.9237,6.9262,6.9277,6.9337,6.9287,6.9306,6.9267,6.9394,6.9269,6.9294,6.9271,6.9268,6.9275,6.942,6.9424,6.9428,6.9431,0,6.9514,6.9476,6.9497,6.9507,6.9525,6.9528,6.9524,6.9548,6.9453,6.9479,6.9512,6.9524,6.9549,6.9576,6.9583,6.9564,6.9484,6.9471,6.9495,6.9523,6.9548,6.9537,6.9143,6.9463,6.9459,6.9457,6.9455,6.9454,6.9744,6.9793,6.9767,6.9794,6.9782,6.9782,6.9822,6.9781,6.9806,6.9819,6.9765,6.9811,6.9791,6.9792,6.9783,6.9819,6.9762,6.9798,6.9807,6.9818,6.9836,6.9542,6.982,6.9819,6.9818,6.9817,6.9816,0,7.0041,7.0019,7.0045,7.0043,7.0066,6.9986,6.9979,7.0004,7.0045,7.0033,7.005,7.009,7.0116,7.0069,7.0088,7.0126,7.009,7.0134,7.0131,7.0129,6.9885,6.9862,7.0164,7.0164,7.0164,7.0163,7.0163,7.0163,7.0198,7.0277,7.0238,7.0311,7.0288,7.0332,7.0335,7.0335,7.0325,7.0373,7.0394,7.0363,7.0338,7.0354,7.0376,7.0362,7.0374,7.0433,7.0406,7.0179,7.0145,7.0113,7.0091,7.0436,7.0436,7.0646,7.0648,7.065]},{"header":{"parameterUnit":"m.s-1","parameterCategory":1,"la1":30.2991,"la2":30.254,"lo1":-89.0895,"lo2":-89.0444,"dy":0.0017,"dx":0.0017,"nx":28,"ny":28,"refTime":"2025-03-08T09:00:00:Z","depth":0,"parameterNumber":3,"parameterNumberName":"V-component_of_WINDS"},"data":[0,0,0,0,0,0,0,0,0,0,0,0,0,0,0,0,0,0,0,0,0,0,0,0,0,0,0,0,0,0,0,0,0,0,0,0,0,0,0,0,0,0,0,0,0,0,0,0,0,0,0,0,0,0,0,0,0,0,-2.6716,-2.6715,0,-2.6649,-2.6649,-2.6648,-2.6574,-2.6573,-2.6572,-2.6571,-2.6504,-2.6504,-2.6503,0,0,0,0,0,0,0,0,0,0,0,0,0,-2.6781,-2.678,-2.6716,-2.6715,-2.6714,-2.665,-2.6649,-2.6648,-2.6574,-2.6573,-2.6572,-2.657,-2.6505,-2.6504,-2.6503,0,0,0,0,0,0,0,0,0,0,0,0,0,-2.6738,-2.678,-2.6716,-2.667,-2.6665,-2.665,-2.6649,-2.6647,-2.6575,-2.6573,-2.6571,-2.657,-2.6505,-2.6504,-2.6503,-2.6528,0,0,-2.6499,-2.6499,0,0,0,0,0,0,0,0,-2.674,-2.6735,-2.6677,-2.6673,-2.6667,-2.6618,-2.6647,-2.6608,-2.6575,-2.6609,-2.6571,-2.6569,-2.6544,-2.6539,-2.653,-2.6525,-2.6522,-2.6499,-2.6498,-2.6498,-2.6498,0,0,0,0,0,0,0,-2.6743,-2.6738,-2.669,-2.6677,-2.6671,-2.6653,-2.6645,-2.6639,-2.6586,-2.6606,-2.66,-2.6593,-2.6541,-2.6532,-2.6528,-2.6521,-2.6499,-2.6498,-2.6497,-2.6497,-2.6535,-2.6536,0,0,0,0,0,0,-2.6753,-2.6741,-2.6692,-2.6688,-2.6701,-2.6653,-2.6644,-2.6636,-2.6586,-2.6577,-2.6595,-2.659,-2.6535,-2.653,-2.6526,-2.6553,-2.6498,-2.6497,-2.6496,-2.6533,-2.6535,-2.6537,0,0,0,0,0,0,-2.6755,-2.6749,-2.6694,-2.6713,-2.6704,-2.6654,-2.6645,-2.6635,-2.6626,-2.6578,-2.6568,-2.6595,-2.6533,-2.6527,-2.6528,-2.6549,-2.6496,-2.6495,-2.6531,-2.6534,-2.6536,-2.6607,0,0,0,0,0,0,-2.6757,-2.6751,-2.6759,-2.6713,-2.6704,-2.6697,-2.6646,-2.6635,-2.6624,-2.6618,-2.6576,-2.6567,-2.6531,-2.653,-2.6527,-2.6547,-2.6494,-2.6529,-2.6532,-2.6535,-2.6602,-2.6611,-2.6619,0,0,0,0,0,-2.676,-2.6781,-2.676,-2.6754,-2.6713,-2.6699,-2.6693,-2.6651,-2.6626,-2.6635,-2.6604,-2.6568,-2.6548,-2.6531,-2.6527,-2.6546,-2.6527,-2.6531,-2.6535,-2.6598,-2.6609,-2.6619,0,0,0,0,0,0,-2.6831,-2.6775,-2.675,-2.6757,-2.6734,-2.6686,-2.6695,-2.6664,-2.6647,-2.6641,-2.659,-2.6582,-2.6589,-2.6568,-2.655,-2.6569,-2.6533,-2.6536,-2.6582,-2.6592,-2.6601,-2.6605,-2.6494,0,0,0,0,0,-2.6847,-2.684,-2.6791,-2.6803,-2.6792,-2.6746,-2.6738,-2.6708,-2.6681,-2.6671,-2.664,-2.6616,-2.6604,-2.6597,-2.6583,-2.6599,-2.659,-2.6611,-2.6619,-2.6626,-2.663,-2.6637,-2.6646,-2.6549,-2.6549,-2.6549,0,0,-2.6881,-2.685,-2.6848,-2.6816,-2.6794,-2.6788,-2.6738,-2.6734,-2.6729,-2.667,-2.6669,-2.6646,-2.6616,-2.6625,-2.6627,-2.6607,-2.6655,-2.6631,-2.6637,-2.6636,-2.6642,-2.6651,-2.666,-2.6552,-2.6552,-2.6551,0,0,-2.694,-2.6916,-2.6923,-2.6902,-2.6869,-2.6838,-2.6841,-2.6798,-2.6781,-2.6779,-2.6735,-2.673,-2.671,-2.669,-2.6678,-2.6732,-2.6699,-2.6729,-2.6773,-2.6781,-2.6789,-2.6795,-2.6815,-2.6823,-2.6733,-2.6733,-2.6733,0,-2.6987,-2.6975,-2.693,-2.6929,-2.6917,-2.6864,-2.6871,-2.6853,-2.6818,-2.6811,-2.679,-2.6765,-2.6741,-2.6745,-2.6758,-2.675,-2.6751,-2.6733,-2.6791,-2.6797,-2.6803,-2.6821,-2.6828,-2.6737,-2.6736,-2.6736,-2.6736,0,-2.7034,-2.7028,-2.7037,-2.7005,-2.6994,-2.6997,-2.6953,-2.6948,-2.6919,-2.6892,-2.6892,-2.6861,-2.6841,-2.684,-2.6812,-2.684,-2.6829,-2.6801,-2.6763,-2.6817,-2.6833,-2.6839,-2.6742,-2.6741,-2.674,-2.6739,0,0,-2.7134,-2.7078,-2.7082,-2.7067,-2.7028,-2.7022,-2.7024,-2.7004,-2.7,-2.6979,-2.6979,-2.6965,-2.6938,-2.6924,-2.6894,-2.6901,-2.6947,-2.6872,-2.687,-2.6887,-2.6977,-2.6999,-2.7008,-2.6926,-2.6927,-2.6928,-2.698,0,-2.7186,-2.7184,-2.7145,-2.7155,-2.7149,-2.7099,-2.7101,-2.7078,-2.7053,-2.7044,-2.7017,-2.7007,-2.6973,-2.6964,-2.6969,-2.694,-2.6964,-2.6936,-2.6926,-2.6926,-2.6934,-2.7016,-2.7038,-2.7089,-2.6986,-2.6987,-2.6988,0,-2.7246,-2.7227,-2.7237,-2.7198,-2.7194,-2.7196,-2.7175,-2.7168,-2.7141,-2.7123,-2.7108,-2.7074,-2.7074,-2.7039,-2.7039,-2.7021,-2.7015,-2.7,-2.7001,-2.6998,-2.696,-2.7015,-2.7104,-2.7112,-2.6997,-2.6996,-2.6996,0,-2.7318,-2.7296,-2.7299,-2.7287,-2.7243,-2.7245,-2.7227,-2.7199,-2.719,-2.7172,-2.7166,-2.7149,-2.714,-2.7128,-2.7091,-2.7069,-2.7095,-2.7057,-2.708,-2.7081,-2.7087,-2.7087,-2.7177,-2.7084,-2.7084,-2.7084,-2.7084,0,-2.7379,-2.7387,-2.733,-2.7332,-2.734,-2.7295,-2.7305,-2.7282,-2.7257,-2.7255,-2.7212,-2.721,-2.7161,-2.7155,-2.7126,-2.7131,-2.7127,-2.7112,-2.7104,-2.7116,-2.7118,-2.711,-2.7106,-2.7086,-2.7086,-2.7085,-2.7085,0,-2.7461,-2.7423,-2.7423,-2.7381,-2.7371,-2.7379,-2.7343,-2.7344,-2.7317,-2.7314,-2.7311,-2.7268,-2.7259,-2.7221,-2.7202,-2.7183,-2.7197,-2.7182,-2.7206,-2.72,-2.7226,-2.7224,-2.7313,-2.7323,-2.7225,-2.7226,-2.7227,0,-2.7502,-2.7507,-2.7466,-2.7461,-2.7444,-2.7437,-2.7427,-2.7385,-2.7377,-2.7348,-2.7353,-2.7339,-2.7326,-2.7313,-2.7281,-2.7267,-2.7251,-2.7284,-2.7249,-2.7261,-2.7252,-2.7252,-2.7253,-2.7291,-2.7292,-2.7293,-2.7294,0,-2.758,-2.7561,-2.7549,-2.7531,-2.7522,-2.7505,-2.7487,-2.7486,-2.7438,-2.7432,-2.7421,-2.7411,-2.7393,-2.738,-2.7361,-2.7343,-2.7312,-2.7306,-2.731,-2.7322,-2.7335,-2.7328,-2.7226,-2.7304,-2.7303,-2.7302,-2.7301,-2.7301,-2.7642,-2.7644,-2.7616,-2.7605,-2.7586,-2.7571,-2.7569,-2.7542,-2.7533,-2.7513,-2.7489,-2.7482,-2.7457,-2.7428,-2.7413,-2.7407,-2.7389,-2.7396,-2.7398,-2.74,-2.7406,-2.7337,-2.7404,-2.7403,-2.7403,-2.7403,-2.7403,0,-2.7717,-2.7697,-2.7687,-2.7663,-2.7654,-2.7625,-2.7604,-2.7599,-2.7592,-2.7572,-2.756,-2.7549,-2.7537,-2.7505,-2.7491,-2.7493,-2.7478,-2.749,-2.749,-2.7486,-2.7422,-2.742,-2.7503,-2.7503,-2.7503,-2.7503,-2.7503,-2.7503,-2.7755,-2.7758,-2.7737,-2.773,-2.771,-2.7702,-2.7693,-2.7679,-2.7662,-2.7651,-2.7641,-2.762,-2.7595,-2.7579,-2.7568,-2.7559,-2.7555,-2.7573,-2.7559,-2.75,-2.7491,-2.7481,-2.7479,-2.7573,-2.7573,-2.7623,-2.7624,-2.7624]}]]